Location: Waco, TX
(31.5480°N, 97.1670°W)
Time: 04:23:59
(UTC-06:00)

ISS - Pass Details

Date: 12 February 2018
Orbit: 402 x 407 km, 51.6° (Epoch: 24 February)

Event Time Altitude Azimuth Distance (km) Brightness Sun altitude
Rises 11:10:58 0° 216° (SW) 2,303 0.3 39.8°
Reaches altitude 10° 11:13:03 10° 212° (SSW) 1,447 -0.6 40.0°
Maximum altitude 11:16:15 58° 133° (SE) 472 -1.9 40.4°
Drops below altitude 10° 11:19:27 10° 53° (NE) 1,453 -1.0 40.7°
Sets 11:21:33 0° 49° (NE) 2,314 -0.1 40.9°
